Location: Keppel Henge
(44.7900°N, 80.9447°W)
Time: 23:04:29
(UTC-04:00)

AO-73 - Visible Passes

Search period start: 26 April 2018 00:00
Search period end: 06 May 2018 00:00
Orbit: 584 x 664 km, 97.6° (Epoch: 26 April)

Date Brightness Start Highest point End Pass type
(mag) Time Alt. Az. Time Alt. Az. Time Alt. Az.
26 Apr ? 21:26:18 10° SSW 21:29:43 23° W 21:33:14 10° NW visible
27 Apr ? 21:45:52 10° SW 21:48:24 15° W 21:50:58 10° NW visible
30 Apr ? 21:03:17 10° SSW 21:07:19 38° W 21:11:30 10° NNW visible
01 May ? 21:22:20 10° SSW 21:25:57 25° W 21:29:38 10° NW visible
02 May ? 21:41:48 10° SW 21:44:37 17° W 21:47:28 10° NW visible
03 May ? 22:02:23 10° W 22:03:20 11° W 22:04:17 10° WNW visible
05 May ? 20:59:24 10° S 21:03:34 42° W 21:07:51 10° NNW visible
